Regional Weather Roundup
Issued by NWS Grand Forks, ND

Home | Current Version | Previous Version | Graphics & Text | Print | Product List | Glossary On
Versions: 1 2 3 4 5 6 7 8 9 10 11 12 13 14 15 16 17 18 19 20 21 22 23 24 25 26 27 28 29 30 31 32 33 34 35 36 37 38 39 40 41 42 43 44 45 46 47 48 49 50
000
ASUS43 KFGF 010131
RWRFGF
PRAIRIE TO PINES  WEATHER ROUNDUP
NATIONAL WEATHER SERVICE EASTERN NORTH DAKOTA/GRAND FORKS ND
800 PM CDT TUE SEP 30 2014

 **SATELLITE DATA USED TO AUGMENT SKY COVER AT AUTOMATED STATIONS**
 *****  WEATHER ACROSS EASTERN NORTH DAKOTA  *****

CITY           SKY/WX    TMP DP  RH WIND       PRES   REMARKS
GRAND FORKS    CLOUDY    59  47  64 SE17G26   29.64F
GRAND FRKS AFB CLOUDY    57  52  83 SE10      29.64F
GRAND FRKS NWS   N/A     55 N/A N/A SE16        N/A
DEVILS LAKE    CLOUDY    55  46  71 SE25G32   29.56S
FARGO          CLOUDY    59  48  67 SE18G28   29.64S
WAHPETON ARPT  CLOUDY    55  46  71 SE20G28   29.68R
$$

 ***** WEATHER ACROSS CENTRAL AND WESTERN NORTH DAKOTA  *****

CITY           SKY/WX    TMP DP  RH WIND       PRES   REMARKS
BISMARCK       LGT RAIN  55  54  96 E14       29.36F FOG
MINOT          HVY RAIN  51  50  96 E12       29.50S FOG
JAMESTOWN      CLOUDY    53  51  93 E22G30    29.51F
MINOT AFB      RAIN      52  52 100 E10       29.51S FOG
GARRISON         N/A     51  50  96 E15       29.45F
WILLISTON      LGT RAIN  51  49  92 E7        29.52S
DICKINSON      CLOUDY    51  50  96 NW10      29.47R FOG
HETTINGER      CLOUDY    53  51  93 W15       29.48R
$$

 *****  OTHER AIRPORT OBSERVATIONS IN OUR AREA  *****

CITY           SKY/WX    TMP DP  RH WIND       PRES   REMARKS
WALHALLA         N/A     54  52  94 E8        29.64F
GRAFTON AIRPOR CLOUDY    55  46  71 SE13      29.64F
VALLEY CITY AR CLOUDY    54  54 100 SE21G32   29.57F
CANDO          CLOUDY    54  48  82 SE18G26   29.59R
CAVALIER APRT  CLOUDY    55  48  76 E8        29.64F
GWINNER        MOCLDY    55  54  94 SE24G31   29.59F
ROLLA          CLOUDY    50  50 100 SE15      29.59F
 ***** THE ABOVE OBSERVATIONS ARE NON NWS ARE NOT QUALITY
       CONTROLLED AND MAY MIS-REPORT RAIN FOR SNOW...
$$

  *****  WEATHER ACROSS NORTHERN MINNESOTA  *****

CITY           SKY/WX    TMP DP  RH WIND       PRES   REMARKS
FLAG ISLAND    CLOUDY    55  46  71 SE10G17   29.76F
WARROAD        MOCLDY    54  46  76 E12       29.75F
ROSEAU         MOCLDY    55  46  71 SE10      29.74S
HALLOCK        MOCLDY    57  45  62 SE12G18   29.67S
THF RVR FALLS  CLOUDY    55  43  62 SE18      29.70S
BAUDETTE       MOCLDY    54  43  66 SE10G18   29.79F
WASKISH        MOCLDY    52  45  76 E14G21    29.78F
CROOKSTON      CLOUDY    59  46  63 SE15G23   29.68S
STEPHEN NDAWN    N/A     57  46  67 SE15        N/A
GREENBUSH NDAW   N/A     57  45  62 SE13        N/A
$$
  *****  WEATHER ACROSS CENTRAL AND WEST MINNESOTA  *****

CITY           SKY/WX    TMP DP  RH WIND       PRES   REMARKS
FOSSTON        CLOUDY    54  43  66 SE15G25   29.72R
BEMIDJI        CLOUDY    53  44  71 SE14      29.79R
PARK RAPIDS    CLOUDY    53  43  68 SE15G23   29.77F
ELBOW LAKE     MOCLDY    55  48  76 SE20G26   29.72R
WADENA         CLOUDY    52  43  71 SE17      29.79R
DETROIT LAKES  CLOUDY    54  45  71 SE21G30   29.75R
MOORHEAD       NOT AVBL
FERGUS FALLS   CLOUDY    55  45  67 SE18G26   29.71R
MORRIS MN      CLOUDY    55  48  76 SE16G26   29.70S
STAPLES        CLOUDY    54  43  66 SE10G17   29.81S
$$
  *****  WEATHER ELSEWHERE ACROSS MINNESOTA  *****

CITY           SKY/WX    TMP DP  RH WIND       PRES   REMARKS
DULUTH         CLOUDY    45  41  86 E18G25    29.95F
INTRNTL FALLS  MOCLDY    49  42  77 E10       29.86F
ELY            PTCLDY    39  37  93 SE9       29.96F
CLOQUET        CLOUDY    46  43  87 E12G21    29.94S
WHEATON        CLOUDY    55  48  76 SE20G26   29.69R
BRAINERD       CLOUDY    53  44  71 SE13G22   29.85R
HIBBING        MOCLDY    43  39  86 SE9       29.93F
ALEXANDRIA     CLOUDY    54  45  71 SE18G32   29.78S
SAINT CLOUD    MOCLDY    55  44  66 E10       29.85F
MINNEAPOLIS    CLOUDY    54  44  69 SE12      29.93R
$$

  *****  WEATHER ACROSS SOUTH DAKOTA  *****

CITY           SKY/WX    TMP DP  RH WIND       PRES   REMARKS
SIOUX FALLS    CLOUDY    66  61  84 S23G29    29.72R
BROOKINGS      NOT AVBL
WATERTOWN      LGT RAIN  62  60  93 S17G35    29.65S FOG
HURON          MOCLDY    71  47  42 S10       29.59R
SISSETON         N/A     58  53  84 S17G24    29.65R
ABERDEEN       CLOUDY    66  52  60 S12       29.53R
MITCHELL       PTCLDY    70  60  70 S16G24    29.64R
PIERRE         PTCLDY    63  51  65 W16G26    29.55R
MOBRIDGE       CLOUDY    62  54  74 SW14G25   29.42R
RAPID CITY     MOCLDY    60  43  53 W10       29.64R
$$

  *****  SOME WEATHER IN NEARBY STATES *****

CITY           SKY/WX    TMP DP  RH WIND       PRES   REMARKS
GLASGOW MT     LGT RAIN  55  51  86 W3        29.55S FOG
GREAT FALLS MT CLOUDY    50  46  87 NW8       29.82R
CHEYENNE WY    CLOUDY    54  36  50 W18       29.86R
SCOTTSBLUFF NE MOCLDY    59  43  55 W7        29.75R
OMAHA NE       LGT RAIN  66  63  90 SE13      29.79R
DES MOINES IA  CLOUDY    68  58  70 E12       29.84S
DAVENPORT IA   NOT AVBL
CHICAGO IL     CLOUDY    53  49  86 N5        30.01S
EAU CLAIRE WI  MOCLDY    50  42  74 SE8       29.98R
LA CROSSE WI   PTCLDY    50  43  77 E7        29.99R
$$

  *****  SOME NATIONAL WEATHER *****

CITY           SKY/WX    TMP DP  RH WIND       PRES   REMARKS
LA GUARDIA NY  CLOUDY    64  57  77 NE9       29.97R
RALEIGH NC     FAIR      64  61  90 E3        29.92R
ATLANTA GA     PTCLDY    74  59  59 CALM      29.92R
NEW ORLEANS LA PTCLDY    79  72  79 SE8       29.86R
OKLAHOMA CITY  PTCLDY    80  60  50 SE9       29.75R
ALBUQUERQUE NM PTCLDY    72  31  22 N10       29.92R
SALT LAKE CITY MOCLDY    54  46  74 NE13      29.92F
LOS ANGELES CA PTCLDY    70  65  84 W13       29.77S
BOISE ID       PTCLDY    60  34  37 NW15      29.96S
SEATTLE WA     PTCLDY    63  49  60 NE8       30.10S
$$

*** WEATHER ACROSS MANITOBA...SASKATCHEWAN AND ONTARIO ***
                ***ONTARIO***

CITY           SKY/WX    TMP DP  RH WIND       PRES   REMARKS
GERALDTON      CLEAR     43  39  87 SE2       30.07F
THUNDER BAY    CLEAR     43  32  65 E8        30.06S
SIOUX LOOKOUT  PTCLDY    48  43  81 SE6       29.92F
TORONTO        CLOUDY    61  59  94 SE5       29.98R FOG
BIG TROUT LK   CLEAR     43  37  81 S9        29.96S
PICKLE LAKE    PTCLDY    46  39  76 SE10      29.96F
DRYDEN         NOT AVBL
KENORA         PTCLDY    50  43  76 SE10      29.83F
$$
                *** MANITOBA***

CITY           SKY/WX    TMP DP  RH WIND       PRES   REMARKS
BRANDON        LGT RAIN  50  50 100 E13       29.62F FOG
DAUPHIN        CLOUDY    50  48  93 E10       29.63F
ISLAND LAKE    PTCLDY    50  43  76 SE10      29.81F
PILOT MOUND      N/A     50  46  87 E14         N/A
THE PAS        CLOUDY    55  48  76 SE14G20   29.61S
THOMPSON       LGT RAIN  50  50 100 SE7       29.67F
WINNIPEG       MOCLDY    55  45  67 SE16G24   29.69F
LYNN LAKE      CLOUDY    46  46 100 S6        29.59S FOG
CHURCHILL      LGT RAIN  43  41  93 SE13      29.80F
GILLAM         LGT RAIN  48  41  76 SE7       29.79F
$$
                ***SASKATCHEWAN***

CITY           SKY/WX    TMP DP  RH WIND       PRES   REMARKS
ESTEVAN        DRIZZLE  N/A N/A N/A E3          N/A
KINDERSLEY     CLOUDY    54  48  82 NW14G20   29.65R
LLOYDMINSTER   MOCLDY    54  48  82 NW8       29.64R
PRINCE ALBERT  CLOUDY    54  52  94 S2        29.56S
REGINA         LGT RAIN  50  50 100 SE10      29.54F
YORKTON        LGT RAIN  52  50  93 SE6       29.58
N. BATTLEFORD  CLOUDY    52  50  93 NW8       29.62S
LA RONGE       CLOUDY    52  52 100 SW3       29.55S FOG
SASKATOON      CLOUDY    55  50  82 N7        29.58S
SWIFT CURRENT  CLOUDY    54  48  82 NW17G25   29.59R
$$
NOTE: THESE ARE AUTOMATED STATIONS WITH LIMITED QUALITY CONTROL
      "FAIR" INDICATES FEW OR NO CLOUDS BELOW 12,000 FEET WITH NO
      SIGNIFICANT WEATHER AND/OR OBSTRUCTIONS TO VISIBILITY.
      SKY/WX - SKY CONDITION AND SIGNIFICANT WEATHER.
      TMP - AIR TEMPERATURE.    DP   - DEWPOINT TEMPERATURE.
      RH  - RELATIVE HUMIDITY.  PRES - PRESSURE.
      HX  - HEAT INDEX.         WCI  - WIND CHILL INDEX.
$


USA.gov is the U.S. government's official web portal to all federal, state and local government web resources and services.